When you browse on this site, cookies collect data to enhance your experience and personalize the content and advertising you see.
Visit our Privacy Policy to learn more. By continuing to use the site, you agree to this use of cookies and data.
  • In Switzerland
  • List of Countries
  • For 7 days
  • Water Temperature
  • Satellite Maps
  • Weather Map
  • Weather Widgets
  • user-avatar
    Login

    Hourly Weather Satif

    Today, 26 June, Wednesday

    Time Temperature Precipitation Wind Pressure Humidity
    00:00 +28°C° 0 mm 2 mps 676 mmHg 24%
    01:00 +27°C° 0 mm 2 mps 676 mmHg 25%
    02:00 +26°C° 0 mm 1 mps 675 mmHg 26%
    03:00 +25°C° 0 mm 1 mps 675 mmHg 27%
    04:00 +27°C° 0 mm 1 mps 675 mmHg 25%
    05:00 +29°C° 0 mm 1 mps 676 mmHg 23%
    06:00 +28°C° 0 mm 0 mps 677 mmHg 21%
    07:00 +33°C° 0 mm 1 mps 677 mmHg 16%
    08:00 +36°C° 0 mm 2 mps 678 mmHg 12%
    09:00 +38°C° 0 mm 3 mps 679 mmHg 8%
    10:00 +38°C° 0 mm 2 mps 679 mmHg 8%
    11:00 +39°C° 0 mm 2 mps 679 mmHg 8%
    12:00 +39°C° 0 mm 1 mps 679 mmHg 8%
    13:00 +39°C° 0 mm 3 mps 678 mmHg 8%
    14:00 +40°C° 0 mm 4 mps 678 mmHg 9%
    15:00 +40°C° 0 mm 5 mps 678 mmHg 9%
    16:00 +39°C° 0 mm 6 mps 678 mmHg 10%
    17:00 +38°C° 0 mm 6 mps 677 mmHg 11%
    18:00 +36°C° 0 mm 6 mps 677 mmHg 12%
    19:00 +34°C° 0 mm 5 mps 677 mmHg 16%
    20:00 +31°C° 0 mm 3 mps 677 mmHg 20%
    21:00 +29°C° 0 mm 2 mps 677 mmHg 24%
    22:00 +28°C° 0 mm 2 mps 676 mmHg 25%
    23:00 +28°C° 0 mm 2 mps 676 mmHg 25%

    Tomorrow, 27 June, Thursday

    Time Temperature Precipitation Wind Pressure Humidity
    00:00 +27°C° 0 mm 1 mps 676 mmHg 26%
    01:00 +26°C° 0 mm 1 mps 676 mmHg 26%
    02:00 +25°C° 0 mm 1 mps 675 mmHg 27%
    03:00 +24°C° 0 mm 1 mps 675 mmHg 27%
    04:00 +26°C° 0 mm 1 mps 675 mmHg 25%
    05:00 +27°C° 0 mm 1 mps 676 mmHg 24%
    06:00 +29°C° 0 mm 1 mps 676 mmHg 22%
    07:00 +30°C° 0 mm 1 mps 677 mmHg 20%
    08:00 +32°C° 0 mm 1 mps 677 mmHg 17%
    09:00 +31°C° 0 mm 0 mps 678 mmHg 15%
    10:00 +35°C° 0 mm 2 mps 678 mmHg 13%
    11:00 +36°C° 0 mm 3 mps 678 mmHg 11%
    12:00 +38°C° 0 mm 4 mps 678 mmHg 10%
    13:00 +37°C° 0 mm 5 mps 677 mmHg 10%
    14:00 +38°C° 0 mm 6 mps 677 mmHg 10%
    15:00 +38°C° 0 mm 7 mps 676 mmHg 11%
    16:00 +36°C° 0 mm 6 mps 676 mmHg 14%
    17:00 +34°C° 0 mm 6 mps 675 mmHg 17%
    18:00 +32°C° 0 mm 5 mps 675 mmHg 20%
    19:00 +30°C° 0 mm 4 mps 675 mmHg 25%
    20:00 +28°C° 0 mm 3 mps 675 mmHg 30%
    21:00 +26°C° 0 mm 2 mps 675 mmHg 35%
    22:00 +25°C° 0 mm 2 mps 675 mmHg 38%
    23:00 +25°C° 0 mm 2 mps 674 mmHg 40%

    Day after tomorrow, 28 June, Friday

    Time Temperature Precipitation Wind Pressure Humidity
    00:00 +24°C° 0 mm 1 mps 674 mmHg 43%
    01:00 +23°C° 0 mm 1 mps 673 mmHg 44%
    02:00 +23°C° 0 mm 1 mps 673 mmHg 45%
    03:00 +22°C° 0 mm 1 mps 673 mmHg 46%
    04:00 +23°C° 0 mm 1 mps 673 mmHg 44%
    05:00 +24°C° 0 mm 1 mps 673 mmHg 41%
    06:00 +25°C° 0 mm 1 mps 674 mmHg 39%
    07:00 +26°C° 0 mm 1 mps 674 mmHg 35%
    08:00 +28°C° 0 mm 1 mps 675 mmHg 31%
    09:00 +28°C° 0 mm 0 mps 675 mmHg 27%
    10:00 +31°C° 0 mm 1 mps 675 mmHg 24%
    11:00 +32°C° 0 mm 1 mps 675 mmHg 21%
    12:00 +33°C° 0 mm 1 mps 675 mmHg 17%
    13:00 +35°C° 0 mm 2 mps 675 mmHg 17%
    14:00 +35°C° 0 mm 3 mps 675 mmHg 17%
    15:00 +36°C° 0 mm 4 mps 675 mmHg 17%
    16:00 +35°C° 0 mm 5 mps 674 mmHg 20%
    17:00 +33°C° 0 mm 5 mps 674 mmHg 24%
    18:00 +32°C° 0 mm 6 mps 674 mmHg 28%
    19:00 +30°C° 0 mm 4 mps 674 mmHg 32%
    20:00 +28°C° 0 mm 3 mps 674 mmHg 36%
    21:00 +26°C° 0 mm 2 mps 674 mmHg 40%
    22:00 +26°C° 0 mm 2 mps 673 mmHg 41%
    23:00 +25°C° 0 mm 2 mps 673 mmHg 43%

    29 June, Saturday

    Time Temperature Precipitation Wind Pressure Humidity
    00:00 +24°C° 0 mm 2 mps 673 mmHg 44%
    01:00 +24°C° 0 mm 1 mps 673 mmHg 44%
    02:00 +23°C° 0 mm 1 mps 672 mmHg 44%
    03:00 +23°C° 0 mm 1 mps 672 mmHg 44%
    04:00 +24°C° 0 mm 1 mps 672 mmHg 40%
    05:00 +25°C° 0 mm 1 mps 673 mmHg 37%
    06:00 +26°C° 0 mm 1 mps 673 mmHg 34%
    07:00 +28°C° 0 mm 1 mps 674 mmHg 30%
    08:00 +30°C° 0 mm 1 mps 675 mmHg 25%
    09:00 +32°C° 0 mm 1 mps 675 mmHg 21%
    10:00 +33°C° 0 mm 1 mps 675 mmHg 19%
    11:00 +34°C° 0 mm 1 mps 675 mmHg 16%
    12:00 +35°C° 0 mm 1 mps 675 mmHg 13%
    13:00 +37°C° 0 mm 2 mps 675 mmHg 13%
    14:00 +37°C° 0 mm 3 mps 675 mmHg 12%
    15:00 +38°C° 0 mm 3 mps 675 mmHg 12%
    16:00 +37°C° 0 mm 4 mps 675 mmHg 13%
    17:00 +36°C° 0 mm 5 mps 675 mmHg 14%
    18:00 +35°C° 0 mm 6 mps 674 mmHg 15%
    19:00 +33°C° 0 mm 5 mps 674 mmHg 19%
    20:00 +30°C° 0 mm 4 mps 674 mmHg 23%
    21:00 +29°C° 0 mm 2 mps 674 mmHg 27%
    22:00 +28°C° 0 mm 2 mps 674 mmHg 29%
    23:00 +27°C° 0 mm 2 mps 674 mmHg 31%

    30 June, Sunday

    Time Temperature Precipitation Wind Pressure Humidity
    00:00 +26°C° 0 mm 2 mps 674 mmHg 33%
    01:00 +26°C° 0 mm 2 mps 673 mmHg 33%
    02:00 +25°C° 0 mm 1 mps 673 mmHg 34%
    03:00 +25°C° 0 mm 1 mps 673 mmHg 35%
    04:00 +26°C° 0 mm 1 mps 673 mmHg 32%
    05:00 +27°C° 0 mm 1 mps 674 mmHg 29%
    06:00 +29°C° 0 mm 1 mps 675 mmHg 27%
    07:00 +30°C° 0 mm 1 mps 675 mmHg 23%
    08:00 +32°C° 0 mm 1 mps 676 mmHg 20%
    09:00 +34°C° 0 mm 1 mps 676 mmHg 17%
    10:00 +35°C° 0 mm 1 mps 676 mmHg 15%
    11:00 +37°C° 0 mm 2 mps 676 mmHg 14%
    12:00 +38°C° 0 mm 2 mps 676 mmHg 13%
    13:00 +38°C° 0 mm 3 mps 676 mmHg 13%
    14:00 +38°C° 0 mm 4 mps 676 mmHg 13%
    15:00 +39°C° 0 mm 6 mps 675 mmHg 13%
    16:00 +38°C° 0 mm 6 mps 675 mmHg 14%
    17:00 +36°C° 0 mm 6 mps 675 mmHg 15%
    18:00 +34°C° 0 mm 6 mps 674 mmHg 16%
    19:00 +33°C° 0 mm 4 mps 674 mmHg 19%
    20:00 +30°C° 0 mm 3 mps 674 mmHg 22%
    21:00 +28°C° 0 mm 1 mps 674 mmHg 25%
    22:00 +27°C° 0 mm 1 mps 674 mmHg 25%
    23:00 +26°C° 0 mm 1 mps 674 mmHg 26%

    1 July, Monday

    Time Temperature Precipitation Wind Pressure Humidity
    00:00 +26°C° 0 mm 1 mps 674 mmHg 27%
    01:00 +23°C° 0 mm 0 mps 673 mmHg 28%
    02:00 +23°C° 0 mm 0 mps 673 mmHg 29%
    03:00 +22°C° 0 mm 0 mps 673 mmHg 31%
    04:00 +24°C° 0 mm 0 mps 673 mmHg 28%
    05:00 +27°C° 0 mm 1 mps 674 mmHg 26%
    06:00 +28°C° 0 mm 1 mps 674 mmHg 24%
    07:00 +30°C° 0 mm 2 mps 675 mmHg 23%
    08:00 +31°C° 0 mm 3 mps 675 mmHg 21%
    09:00 +34°C° 0 mm 3 mps 676 mmHg 20%
    10:00 +35°C° 0 mm 4 mps 676 mmHg 19%
    11:00 +36°C° 0 mm 4 mps 676 mmHg 18%
    12:00 +36°C° 0 mm 4 mps 676 mmHg 18%
    13:00 +37°C° 0 mm 4 mps 676 mmHg 17%
    14:00 +37°C° 0 mm 4 mps 676 mmHg 17%
    15:00 +37°C° 0 mm 4 mps 675 mmHg 16%
    16:00 +36°C° 0 mm 4 mps 675 mmHg 17%
    17:00 +34°C° 0 mm 3 mps 675 mmHg 19%
    18:00 +33°C° 0 mm 3 mps 674 mmHg 20%
    19:00 +30°C° 0 mm 2 mps 674 mmHg 23%
    20:00 +29°C° 0 mm 2 mps 674 mmHg 25%
    21:00 +27°C° 0 mm 1 mps 674 mmHg 28%
    22:00 +26°C° 0 mm 1 mps 673 mmHg 29%
    23:00 +26°C° 0 mm 1 mps 673 mmHg 30%
    Show more